Overview Statistics Trail Chart Weather Telemetry Raw packets
 

This is the latest recevied weather packets stored in our database for station/object IU1OLT-6. If no packets are shown the sender has not sent any weather packets the latest 10 day(s).

<< 7 8 9 10 11 12 13 >>
Time Temp. Humidity Pressure Rain* Wind** Luminosity Snow
1788488769 18.33° C 29% 1017.5 hPa 0 mm - - -
1788487809 18.89° C 29% 1017.8 hPa 0 mm - - -
1788486849 19.44° C 31% 1017.7 hPa 0 mm - - -
1788485889 18.89° C 29% 1017.6 hPa 0 mm - - -
1788484929 18.33° C 29% 1017.5 hPa 0 mm - - -
1788483969 18.33° C 27% 1017.5 hPa 0 mm - - -
1788483057 17.78° C 28% 1017.4 hPa 0 mm - - -
1788482145 17.78° C 36% 1017.5 hPa 0 mm - - -
1788481233 17.78° C 42% 1017.7 hPa 0 mm - - -
1788480321 17.78° C 37% 1017.8 hPa 0 mm - - -
1788479361 17.22° C 56% 1017.8 hPa 0 mm - - -
1788478401 17.22° C 55% 1017.8 hPa 0 mm - - -
1788477441 17.22° C 52% 1017.9 hPa 0 mm - - -
1788476481 16.67° C 64% 1017.8 hPa 0 mm - - -
1788475521 17.22° C 60% 1017.9 hPa 0 mm - - -
1788474561 16.67° C 58% 1017.9 hPa 0 mm - - -
1788473693 17.78° C 50% 1017.9 hPa 0 mm - - -
1788473649 17.78° C 50% 1017.9 hPa 0 mm - - -
1788472737 17.78° C 45% 1017.9 hPa 0 mm - - -
1788471777 17.78° C 46% 1017.9 hPa 0 mm - - -
1788470817 18.33° C 45% 1018 hPa 0 mm - - -
1788469857 18.33° C 51% 1017.9 hPa 0 mm - - -
1788468897 17.78° C 48% 1017.8 hPa 0 mm - - -
1788467937 18.33° C 46% 1017.9 hPa 0 mm - - -
1788466977 17.78° C 60% 1017.9 hPa 0 mm - - -

* Rain latest hour (hover to see other rain measurements)
** Current wind speed in m/s (hover to see current wind gust speed)